sat.trackr.live / text

‹ back to catalog

STARLINK-37035

NORAD 68180 · 2026-050P

PAYLOAD ACTIVE UNKNOWN

§ Identity

Operator
Country
US
Launch date
2026-03-14
Launch site
AFETR
Launch vehicle
Mass (kg)
RCS (m²)

Purposes: comms

External: N2YO · Heavens-Above · Gunter

§ Orbital elements

Epoch: 2026-05-24T16:56:11.583168Z

Period
93.58 min
Inclination
53.1586°
Eccentricity
0.0001187
Mean motion
15.38860087 rev/d
Perigee alt
448.7 km
Apogee alt
450.3 km
Semi-major
6,827.6 km
B*
1.0915e-3
RAAN
273.5166°
Arg perigee
57.6662°
Mean anomaly
302.4457°
Rev number
1,232

§ Raw data

STARLINK-370351 68180U 26050P   26144.70568962  .00042425  00000+0  10915-2 0  99902 68180  53.1586 273.5166 0001187  57.6662 302.4457 15.38860087 12321

JSON: /api/v1/satellites/68180 · /tle

For live sub-satellite position, see the globe view (requires WebGL).

§ Visibility from observer

Set your observer location to see the next 7 days of passes ≥ 10°. The values pass through the URL so the page stays shareable.

No JS? Fill the form by hand. The geolocation button needs JavaScript.